[[{"header":{"parameterUnit":"m.s-1","parameterCategory":1,"la1":30.2991,"la2":30.254,"lo1":-89.0895,"lo2":-89.0444,"dy":0.0017,"dx":0.0017,"nx":28,"ny":28,"refTime":"2025-01-15T09:00:00:Z","depth":0,"parameterNumber":2,"parameterNumberName":"U-component_of_WINDS"},"data":[0,0,0,0,0,0,0,0,0,0,0,0,0,0,0,0,0,0,0,0,0,0,0,0,0,0,0,0,0,0,0,0,0,0,0,0,0,0,0,0,0,0,0,0,0,0,0,0,0,0,0,0,0,0,0,0,0,0,-1.5552,-1.5552,0,-1.5576,-1.5577,-1.5577,-1.5477,-1.5474,-1.5471,-1.5469,-1.5498,-1.5501,-1.5504,0,0,0,0,0,0,0,0,0,0,0,0,0,-1.5423,-1.5426,-1.5552,-1.5552,-1.5552,-1.5576,-1.5577,-1.5577,-1.5478,-1.5474,-1.5471,-1.5467,-1.5496,-1.5501,-1.5505,0,0,0,0,0,0,0,0,0,0,0,0,0,-1.5466,-1.5427,-1.5552,-1.5506,-1.5502,-1.5576,-1.5577,-1.5577,-1.5479,-1.5474,-1.547,-1.5466,-1.5495,-1.55,-1.5505,-1.5626,0,0,-1.5521,-1.5524,0,0,0,0,0,0,0,0,-1.5464,-1.5471,-1.5512,-1.5509,-1.5505,-1.5519,-1.5542,-1.5594,-1.548,-1.5488,-1.5469,-1.5463,-1.5509,-1.5512,-1.5527,-1.5628,-1.5629,-1.5522,-1.5525,-1.5527,-1.5529,0,0,0,0,0,0,0,-1.5461,-1.547,-1.5561,-1.5513,-1.5508,-1.5485,-1.5486,-1.5551,-1.5523,-1.5486,-1.5479,-1.5483,-1.5506,-1.5522,-1.5527,-1.5629,-1.5522,-1.5526,-1.553,-1.5532,-1.5834,-1.5838,0,0,0,0,0,0,-1.5464,-1.5468,-1.5561,-1.5562,-1.5473,-1.5491,-1.5492,-1.5519,-1.5522,-1.5518,-1.5487,-1.5479,-1.5515,-1.5521,-1.5527,-1.5671,-1.5527,-1.5532,-1.5535,-1.5829,-1.5835,-1.584,0,0,0,0,0,0,-1.5461,-1.5473,-1.556,-1.5513,-1.5522,-1.5498,-1.5529,-1.5522,-1.5538,-1.5522,-1.5517,-1.5509,-1.5512,-1.552,-1.5603,-1.5671,-1.5535,-1.5539,-1.5823,-1.5831,-1.5837,-1.5959,0,0,0,0,0,0,-1.5458,-1.5473,-1.5517,-1.5515,-1.5525,-1.5634,-1.5533,-1.5526,-1.5547,-1.5536,-1.5541,-1.5538,-1.5509,-1.5596,-1.5608,-1.5676,-1.5544,-1.5817,-1.5826,-1.5835,-1.5949,-1.597,-1.5987,0,0,0,0,0,-1.5454,-1.5551,-1.552,-1.5532,-1.558,-1.5638,-1.5644,-1.5608,-1.5553,-1.5598,-1.5588,-1.5538,-1.5661,-1.5605,-1.5618,-1.5688,-1.5812,-1.5824,-1.5834,-1.594,-1.5966,-1.5987,0,0,0,0,0,0,-1.5563,-1.555,-1.5515,-1.5614,-1.5628,-1.5621,-1.5677,-1.5635,-1.5666,-1.5655,-1.561,-1.5612,-1.5703,-1.5704,-1.5641,-1.5807,-1.5727,-1.5742,-1.5804,-1.5827,-1.5846,-1.5845,-1.5548,0,0,0,0,0,-1.5598,-1.5645,-1.5631,-1.572,-1.5728,-1.5702,-1.5726,-1.5697,-1.5709,-1.5715,-1.5711,-1.5727,-1.5769,-1.5798,-1.5836,-1.5948,-1.5949,-1.6003,-1.6022,-1.6038,-1.6051,-1.6113,-1.6138,-1.5876,-1.5876,-1.5875,0,0,-1.5672,-1.5671,-1.5703,-1.5742,-1.5749,-1.58,-1.5707,-1.5765,-1.5803,-1.5724,-1.5802,-1.58,-1.5814,-1.5913,-1.5957,-1.5917,-1.6124,-1.6052,-1.6065,-1.6069,-1.6127,-1.6152,-1.6174,-1.5883,-1.5882,-1.5881,0,0,-1.5834,-1.5836,-1.5911,-1.592,-1.5932,-1.5914,-1.5932,-1.5932,-1.5927,-1.6005,-1.5948,-1.5993,-1.6066,-1.6079,-1.6096,-1.6264,-1.6219,-1.6277,-1.6378,-1.6439,-1.646,-1.6478,-1.654,-1.6563,-1.629,-1.6291,-1.6291,0,-1.5925,-1.5998,-1.5956,-1.6017,-1.6037,-1.5967,-1.6044,-1.6055,-1.608,-1.6096,-1.605,-1.6142,-1.6147,-1.6249,-1.629,-1.6305,-1.6326,-1.6277,-1.646,-1.6478,-1.6494,-1.6553,-1.6577,-1.6298,-1.6297,-1.6296,-1.6295,0,-1.611,-1.6162,-1.6221,-1.6246,-1.6272,-1.6341,-1.6312,-1.6343,-1.6313,-1.63,-1.6382,-1.6384,-1.6423,-1.6445,-1.6415,-1.6544,-1.6519,-1.6467,-1.6387,-1.6527,-1.6582,-1.6604,-1.6308,-1.6305,-1.6303,-1.6301,0,0,-1.6341,-1.6342,-1.6365,-1.6376,-1.6385,-1.6425,-1.6491,-1.6528,-1.6558,-1.6577,-1.6633,-1.6697,-1.6651,-1.6669,-1.6641,-1.6694,-1.683,-1.6636,-1.6636,-1.6674,-1.6975,-1.7015,-1.7042,-1.68,-1.6804,-1.6807,-1.6974,0,-1.6501,-1.6614,-1.6579,-1.6694,-1.6743,-1.6678,-1.6736,-1.6749,-1.6739,-1.6781,-1.677,-1.6817,-1.675,-1.6762,-1.6811,-1.6803,-1.689,-1.679,-1.6854,-1.6857,-1.6855,-1.707,-1.7112,-1.727,-1.6995,-1.6999,-1.7001,0,-1.6702,-1.673,-1.685,-1.6852,-1.6871,-1.6924,-1.6956,-1.6995,-1.7009,-1.6998,-1.702,-1.6981,-1.7049,-1.6967,-1.7061,-1.6994,-1.7018,-1.7018,-1.7023,-1.703,-1.6939,-1.7084,-1.7319,-1.7344,-1.7034,-1.7031,-1.7029,0,-1.6862,-1.6928,-1.7009,-1.7021,-1.7024,-1.7064,-1.7067,-1.7076,-1.7101,-1.713,-1.7146,-1.7182,-1.7202,-1.7232,-1.7205,-1.7147,-1.7304,-1.7219,-1.73,-1.7301,-1.7337,-1.7336,-1.7581,-1.7349,-1.7349,-1.7348,-1.7348,0,-1.7046,-1.7122,-1.7081,-1.7131,-1.7216,-1.7175,-1.7261,-1.7257,-1.7266,-1.7316,-1.7261,-1.731,-1.7269,-1.7314,-1.7293,-1.7376,-1.7385,-1.738,-1.7374,-1.7386,-1.7388,-1.7403,-1.7392,-1.7355,-1.7353,-1.7352,-1.7351,0,-1.7239,-1.7214,-1.7298,-1.7295,-1.7296,-1.7359,-1.7357,-1.7404,-1.739,-1.7454,-1.7467,-1.7446,-1.7497,-1.7472,-1.7524,-1.751,-1.7618,-1.7596,-1.7613,-1.7608,-1.7691,-1.7684,-1.7957,-1.7992,-1.7735,-1.7738,-1.774,0,-1.7358,-1.7416,-1.7419,-1.7448,-1.7455,-1.7502,-1.7527,-1.749,-1.7519,-1.754,-1.7585,-1.7631,-1.7665,-1.7749,-1.774,-1.7781,-1.7761,-1.7854,-1.7767,-1.7778,-1.7765,-1.7763,-1.777,-1.7872,-1.7875,-1.7877,-1.7879,0,-1.7574,-1.756,-1.7597,-1.7632,-1.7664,-1.7689,-1.771,-1.7737,-1.7701,-1.7737,-1.7787,-1.7814,-1.7868,-1.7915,-1.795,-1.7955,-1.7913,-1.7906,-1.7928,-1.7942,-1.7951,-1.795,-1.7663,-1.7901,-1.7899,-1.7897,-1.7896,-1.7895,-1.7736,-1.7785,-1.7795,-1.784,-1.7851,-1.7873,-1.7918,-1.791,-1.7951,-1.7991,-1.7967,-1.8027,-1.8041,-1.8085,-1.8096,-1.8144,-1.8107,-1.8137,-1.8145,-1.8154,-1.8166,-1.7941,-1.815,-1.8149,-1.8148,-1.8148,-1.8147,0,-1.7951,-1.7954,-1.7996,-1.8027,-1.8063,-1.8018,-1.8039,-1.8073,-1.8126,-1.8142,-1.8178,-1.8237,-1.8283,-1.8277,-1.832,-1.8359,-1.8341,-1.8372,-1.837,-1.8372,-1.8195,-1.8174,-1.8386,-1.8386,-1.8386,-1.8386,-1.8386,-1.8386,-1.8067,-1.8148,-1.8135,-1.8223,-1.8225,-1.8283,-1.83,-1.832,-1.8333,-1.8402,-1.8439,-1.8435,-1.8443,-1.8486,-1.8527,-1.8524,-1.8543,-1.8582,-1.8573,-1.8408,-1.8384,-1.8362,-1.8342,-1.8586,-1.8587,-1.8747,-1.8748,-1.8749]},{"header":{"parameterUnit":"m.s-1","parameterCategory":1,"la1":30.2991,"la2":30.254,"lo1":-89.0895,"lo2":-89.0444,"dy":0.0017,"dx":0.0017,"nx":28,"ny":28,"refTime":"2025-01-15T09:00:00:Z","depth":0,"parameterNumber":3,"parameterNumberName":"V-component_of_WINDS"},"data":[0,0,0,0,0,0,0,0,0,0,0,0,0,0,0,0,0,0,0,0,0,0,0,0,0,0,0,0,0,0,0,0,0,0,0,0,0,0,0,0,0,0,0,0,0,0,0,0,0,0,0,0,0,0,0,0,0,0,-0.2059,-0.2059,0,-0.2072,-0.2073,-0.2073,-0.2067,-0.2067,-0.2066,-0.2066,-0.208,-0.2081,-0.2082,0,0,0,0,0,0,0,0,0,0,0,0,0,-0.2026,-0.2027,-0.2059,-0.2059,-0.2059,-0.2072,-0.2073,-0.2073,-0.2067,-0.2066,-0.2066,-0.2066,-0.208,-0.2081,-0.2082,0,0,0,0,0,0,0,0,0,0,0,0,0,-0.204,-0.2027,-0.2058,-0.2058,-0.2058,-0.2072,-0.2073,-0.2073,-0.2067,-0.2066,-0.2066,-0.2066,-0.208,-0.2081,-0.2082,-0.2098,0,0,-0.2085,-0.2086,0,0,0,0,0,0,0,0,-0.204,-0.2042,-0.2058,-0.2058,-0.2058,-0.2067,-0.2067,-0.2081,-0.2067,-0.2063,-0.2066,-0.2065,-0.2076,-0.2078,-0.2081,-0.2099,-0.21,-0.2085,-0.2086,-0.2086,-0.2087,0,0,0,0,0,0,0,-0.2039,-0.2041,-0.2064,-0.2058,-0.2058,-0.2056,-0.2058,-0.2069,-0.2073,-0.2064,-0.2063,-0.2065,-0.2076,-0.208,-0.2082,-0.21,-0.2085,-0.2086,-0.2087,-0.2087,-0.213,-0.2131,0,0,0,0,0,0,-0.2038,-0.204,-0.2064,-0.2064,-0.2047,-0.2057,-0.2059,-0.2065,-0.2072,-0.2073,-0.2065,-0.2065,-0.2079,-0.2081,-0.2082,-0.2101,-0.2086,-0.2087,-0.2088,-0.213,-0.2131,-0.2131,0,0,0,0,0,0,-0.2037,-0.204,-0.2063,-0.2052,-0.2055,-0.2058,-0.2065,-0.2065,-0.2069,-0.2074,-0.2074,-0.2069,-0.2079,-0.2081,-0.2094,-0.2102,-0.2088,-0.2089,-0.2129,-0.213,-0.2131,-0.214,0,0,0,0,0,0,-0.2036,-0.204,-0.2046,-0.2052,-0.2056,-0.2075,-0.2066,-0.2066,-0.2071,-0.207,-0.2077,-0.2078,-0.2078,-0.2093,-0.2095,-0.2103,-0.2089,-0.2129,-0.213,-0.2131,-0.2139,-0.2141,-0.2143,0,0,0,0,0,-0.2035,-0.2049,-0.2047,-0.2049,-0.2064,-0.2075,-0.2077,-0.2077,-0.2072,-0.2078,-0.2081,-0.2078,-0.21,-0.2094,-0.2097,-0.2105,-0.2128,-0.2129,-0.2131,-0.2139,-0.2141,-0.2143,0,0,0,0,0,0,-0.2044,-0.2049,-0.2047,-0.2063,-0.2069,-0.2074,-0.2083,-0.208,-0.2088,-0.2087,-0.2086,-0.2088,-0.2102,-0.2105,-0.2097,-0.2121,-0.2113,-0.2115,-0.2119,-0.2121,-0.2123,-0.2122,-0.209,0,0,0,0,0,-0.2048,-0.2056,-0.2061,-0.2075,-0.2077,-0.2079,-0.2085,-0.2084,-0.209,-0.2092,-0.2096,-0.2102,-0.211,-0.2116,-0.2124,-0.214,-0.2141,-0.2147,-0.2148,-0.215,-0.2152,-0.216,-0.2162,-0.2135,-0.2135,-0.2135,0,0,-0.2056,-0.206,-0.2066,-0.2076,-0.2081,-0.209,-0.2082,-0.2092,-0.2098,-0.2094,-0.2107,-0.2109,-0.2116,-0.213,-0.2137,-0.2133,-0.2159,-0.2151,-0.2153,-0.2154,-0.2161,-0.2164,-0.2166,-0.2136,-0.2136,-0.2136,0,0,-0.2075,-0.2079,-0.209,-0.2094,-0.2101,-0.2102,-0.2104,-0.211,-0.2112,-0.2124,-0.2121,-0.2128,-0.2143,-0.2147,-0.2152,-0.2171,-0.2168,-0.2173,-0.2183,-0.2191,-0.2193,-0.2195,-0.2201,-0.2204,-0.2175,-0.2175,-0.2175,0,-0.2084,-0.2098,-0.2097,-0.2107,-0.2111,-0.2107,-0.2118,-0.2122,-0.2131,-0.2134,-0.213,-0.2147,-0.2151,-0.2167,-0.2171,-0.2175,-0.2177,-0.2173,-0.2193,-0.2195,-0.2196,-0.2203,-0.2205,-0.2176,-0.2175,-0.2175,-0.2175,0,-0.2108,-0.2118,-0.2126,-0.2134,-0.2139,-0.215,-0.2151,-0.2156,-0.2155,-0.2156,-0.2168,-0.2173,-0.2181,-0.2185,-0.2184,-0.2199,-0.2197,-0.2193,-0.2185,-0.22,-0.2205,-0.2208,-0.2176,-0.2176,-0.2176,-0.2176,0,0,-0.2135,-0.2141,-0.2144,-0.2147,-0.2153,-0.216,-0.217,-0.2178,-0.2182,-0.2188,-0.2196,-0.2208,-0.2204,-0.2209,-0.2208,-0.2215,-0.2229,-0.2209,-0.2209,-0.2213,-0.2246,-0.2249,-0.2252,-0.2227,-0.2227,-0.2228,-0.2245,0,-0.2154,-0.2172,-0.2171,-0.2187,-0.2195,-0.219,-0.2199,-0.2203,-0.2205,-0.2211,-0.2213,-0.2221,-0.2215,-0.2217,-0.2224,-0.2226,-0.2235,-0.2224,-0.2234,-0.2235,-0.2233,-0.2255,-0.2259,-0.2275,-0.2248,-0.2248,-0.2248,0,-0.218,-0.2186,-0.2203,-0.2206,-0.221,-0.2217,-0.2224,-0.2231,-0.2235,-0.2235,-0.224,-0.2238,-0.2247,-0.2239,-0.2252,-0.2245,-0.2248,-0.225,-0.225,-0.2252,-0.2243,-0.2257,-0.2281,-0.2283,-0.2252,-0.2252,-0.2251,0,-0.2197,-0.2209,-0.2221,-0.2223,-0.2228,-0.2233,-0.2235,-0.2239,-0.2244,-0.2249,-0.2252,-0.2259,-0.2263,-0.2268,-0.2267,-0.2261,-0.228,-0.2272,-0.2281,-0.2281,-0.2285,-0.2285,-0.231,-0.2288,-0.2287,-0.2287,-0.2287,0,-0.2219,-0.223,-0.2228,-0.2235,-0.2247,-0.2245,-0.2256,-0.2258,-0.2261,-0.2268,-0.2264,-0.2271,-0.227,-0.2276,-0.2276,-0.2287,-0.2288,-0.2289,-0.2289,-0.2289,-0.2289,-0.2292,-0.2291,-0.2288,-0.2288,-0.2288,-0.2288,0,-0.2241,-0.224,-0.2252,-0.2255,-0.2256,-0.2264,-0.2266,-0.2273,-0.2273,-0.2282,-0.2284,-0.2285,-0.2292,-0.2292,-0.2301,-0.23,-0.2313,-0.2312,-0.2312,-0.2311,-0.232,-0.2319,-0.2348,-0.2351,-0.2326,-0.2327,-0.2327,0,-0.2255,-0.2263,-0.2266,-0.227,-0.2272,-0.228,-0.2284,-0.2282,-0.2286,-0.2291,-0.2297,-0.2304,-0.2309,-0.2321,-0.2323,-0.2329,-0.2328,-0.2337,-0.2329,-0.2329,-0.2328,-0.2327,-0.2328,-0.2339,-0.2339,-0.234,-0.234,0,-0.228,-0.2279,-0.2285,-0.2291,-0.2296,-0.23,-0.2304,-0.2308,-0.2306,-0.2311,-0.2319,-0.2323,-0.2331,-0.2338,-0.2344,-0.2346,-0.2342,-0.2342,-0.2344,-0.2345,-0.2345,-0.2345,-0.2316,-0.2342,-0.2342,-0.2341,-0.2341,-0.2341,-0.2299,-0.2305,-0.2308,-0.2314,-0.2317,-0.232,-0.2326,-0.2327,-0.2333,-0.2339,-0.2338,-0.2346,-0.2349,-0.2356,-0.2359,-0.2365,-0.2361,-0.2365,-0.2366,-0.2367,-0.2367,-0.2344,-0.2366,-0.2366,-0.2366,-0.2366,-0.2366,0,-0.2324,-0.2325,-0.2331,-0.2336,-0.2341,-0.2337,-0.234,-0.2345,-0.2352,-0.2355,-0.236,-0.2368,-0.2374,-0.2375,-0.2381,-0.2386,-0.2385,-0.2388,-0.2388,-0.2388,-0.237,-0.2368,-0.2389,-0.2389,-0.2389,-0.2389,-0.2389,-0.2389,-0.2337,-0.2348,-0.2347,-0.2358,-0.2359,-0.2367,-0.2369,-0.2372,-0.2375,-0.2383,-0.2388,-0.2389,-0.2391,-0.2397,-0.2402,-0.2402,-0.2405,-0.2408,-0.2408,-0.2392,-0.2389,-0.2387,-0.2385,-0.2409,-0.2409,-0.2425,-0.2425,-0.2425]}]]